This is the latest recevied weather packets stored in our database for station/object W2EH. If no packets are shown the sender has not sent any weather packets the latest 10 day(s).
| Time | Temp. | Humidity | Pressure | Rain* | Wind** | Luminosity | Snow |
|---|---|---|---|---|---|---|---|
| 1777820043 | 21.11° C | 56% | 1021.9 hPa | 0 mm | - | 50 W/m² | - |
| 1777819739 | 20.56° C | 58% | 1021.7 hPa | 0 mm | - | 135 W/m² | - |
| 1777819438 | 20° C | 58% | 1021.8 hPa | 0 mm | - | 62 W/m² | - |
| 1777819135 | 20° C | 61% | 1021.9 hPa | 0 mm | - | 47 W/m² | - |
| 1777818832 | 20° C | 58% | 1021.7 hPa | 0 mm | - | 34 W/m² | - |
| 1777818528 | 19.44° C | 63% | 1021.6 hPa | 0 mm | - | 54 W/m² | - |
| 1777818225 | 19.44° C | 64% | 1021.6 hPa | 0 mm | - | 33 W/m² | - |
| 1777817921 | 18.89° C | 63% | 1021.5 hPa | 0 mm | - | 58 W/m² | - |
| 1777817619 | 18.33° C | 65% | 1021.7 hPa | 0 mm | - | 35 W/m² | - |
| 1777817315 | 17.78° C | 66% | 1021.6 hPa | 0 mm | - | 30 W/m² | - |
| 1777817013 | 17.78° C | 66% | 1021.6 hPa | 0 mm | - | 32 W/m² | - |
| 1777816708 | 17.78° C | 66% | 1021.7 hPa | 0 mm | - | 39 W/m² | - |
| 1777816406 | 17.22° C | 68% | 1021.6 hPa | 0 mm | - | 28 W/m² | - |
| 1777816104 | 17.22° C | 70% | 1021.7 hPa | 0 mm | - | 37 W/m² | - |
| 1777815801 | 16.67° C | 70% | 1021.5 hPa | 0 mm | - | 32 W/m² | - |
| 1777815499 | 16.67° C | 70% | 1021.6 hPa | 0 mm | - | 35 W/m² | - |
| 1777815196 | 16.67° C | 71% | 1021.4 hPa | 0 mm | - | 72 W/m² | - |
| 1777814892 | 16.11° C | 74% | 1021.6 hPa | 0 mm | - | 39 W/m² | - |
| 1777814588 | 15.56° C | 75% | 1021.5 hPa | 0 mm | - | 87 W/m² | - |
| 1777814286 | 15.56° C | 76% | 1021.5 hPa | 0 mm | - | 29 W/m² | - |
| 1777813982 | 15° C | 80% | 1021.7 hPa | 0 mm | - | 29 W/m² | - |
| 1777813680 | 13.89° C | 82% | 1021.6 hPa | 0 mm | - | 21 W/m² | - |
| 1777813377 | 13.33° C | 85% | 1021.5 hPa | 0 mm | - | 20 W/m² | - |
| 1777813074 | 12.78° C | 90% | 1021.5 hPa | 0 mm | - | 19 W/m² | - |
| 1777812772 | 12.22° C | 92% | 1021.4 hPa | 0 mm | - | 18 W/m² | - |
* Rain latest hour (hover to see other rain measurements)
** Current wind speed in m/s (hover to see current wind gust speed)